Flag for China Weather past 2 weeks in Changchun, Jilin, China

Now
79 °F

Thunderstorms. Scattered clouds.


Feels Like: 80 °F
Forecast: 62 / 76 °F
Wind: 3 mph from West

Location: Changchun Airport

Current Time: Sep 1, 2014 at 3:55:18 PM

Latest Report: Sep 1, 2014 at 3:00 PM


Visibility: N/A

Pressure: 29.95 "Hg

Humidity: 54%

Dew point: 61 °F

Location of ChangchunLocation

Historic Weather in Changchun — Graph

°F

Changchun temperature yesterday

Maximum temperature yesterday: 82 °F (at 1:00 PM)
Minimum temperature yesterday: 63 °F (at 4:00 AM)
Average temperature yesterday: 72 °F

Past Weeks' High & Low Weather Summary

 TemperatureHumidityPressure
High86 °F (Aug 20, 1:00 PM)100% (Aug 19, 1:00 AM)30.07 "Hg (Aug 19, 1:00 AM)
Low57 °F (Aug 28, 4:00 AM)39% (Aug 26, 2:00 PM)29.68 "Hg (Aug 23, 3:00 PM)
Average72 °F72%29.89 "Hg
* Reported Aug 17 2:00 PM — Sep 1 2:00 PM, Changchun, Weather by CustomWeather, © 2014

Note: Actual official high and low records may vary slightly from our data, if they occured in-between our weather recording intervals... More about our weather records

Advertising

Changchun weather history for previous 24 hours

 ConditionsComfort  
Time TempWeatherWind HumidityBarometerVisibility
2:00 PM
Sep 1
81 °FScattered clouds.1 mph51%29.95 "HgN/A
1:00 PM82 °FPassing clouds.3 mph42%29.95 "HgN/A
12:00 PM81 °FPassing clouds.6 mph51%29.98 "HgN/A
11:00 AM79 °FPassing clouds.6 mph58%29.98 "HgN/A
10:00 AM75 °FClear.3 mph69%30.01 "Hg5 mi
9:00 AM73 °FClear.3 mph74%30.01 "Hg4 mi
8:00 AM70 °FFog.1 mph83%30.01 "Hg2 mi
7:00 AM64 °FFog.3 mph100%30.01 "Hg1 mi
6:00 AM64 °FFog.3 mph94%29.98 "Hg2 mi
5:00 AM63 °FFog.3 mph94%29.98 "Hg2 mi
4:00 AM61 °FFog.1 mph94%29.98 "Hg3 mi
3:00 AM63 °FPassing clouds.1 mph94%29.95 "Hg4 mi
2:00 AM63 °FPassing clouds.1 mph94%29.95 "Hg4 mi
1:00 AM63 °FPassing clouds.1 mph94%29.95 "Hg4 mi
12:00 AM63 °FPassing clouds.1 mph94%29.95 "Hg4 mi
11:00 PM
Aug 31
64 °FPassing clouds.No wind88%29.98 "Hg4 mi
10:00 PM64 °FPassing clouds.1 mph88%29.98 "Hg5 mi
9:00 PM66 °FClear.1 mph83%29.98 "Hg10 mi
8:00 PM68 °FClear.1 mph78%29.95 "Hg10 mi
7:00 PM70 °FPassing clouds.No wind73%29.95 "HgN/A
6:00 PM75 °FPassing clouds.1 mph65%29.92 "HgN/A
5:00 PM81 °FPassing clouds.3 mph51%29.92 "HgN/A
4:00 PM82 °FPassing clouds.6 mph45%29.92 "HgN/A
3:00 PM82 °FPassing clouds.6 mph42%29.92 "HgN/A
Weather by CustomWeather, © 2014

See weather overviewHow to use our weather pages